Tracking 19847 objects as of 17-Sep-2019
HD Live streaming from Space Station
objects crossing your sky now

SERPENS


SERPENS is no longer on orbit
SERPENS is classified as:


NORAD ID: 40897
Int'l Code: 1998-067GX
Perigee: N/A
Apogee: N/A
Inclination: N/A
Period: N/A
Semi major axis: N/A
RCS: N/A
Launch date: November 20, 1998
Source: Brazil (BRAZ)
Launch site: TYURATAM MISSILE AND SPACE COMPLEX (TTMTR)
Decay date: 2016-03-27

Uplink (MHz):
Downlink (MHz): 145.980/437.365
Beacon (MHz):
Mode: 1k2 MSK/9k6 GFSK CW
Call sign: PY0ESA
Status: Reentered

aabbcc
Your satellite tracking list
Your tracking list is empty




NASA's NSSDC Master Catalog

Two Line Element Set (TLE):
1 40897U 98067GX  16087.17198643  .14496049  12607-4  75186-3 0  9996
2 40897  51.6079  83.5146 0009266 349.7464  11.2974 16.42052915 30018
Source of the keplerian elements: AFSPC